User: anonymous   Login
Location: Dürabuch
(48.2640°N, 11.2185°E)
Time: 17:15:54
(UTC+00:00)
Language:

ALOS - Orbit

View from above orbital plane
View from above orbital plane
View from above satellite
View from above satellite

Ground track
Ground track

The orbit data is extracted from the following two-line orbital elements,

1 28931U 06002A   24196.46038397  .00002762  00000-0  51283-3 0  9992
2 28931  98.0372 148.9406 0002540  76.5947 283.5540 14.65973815985340
Epoch (UTC): 14 July 2024 11:02:57
Eccentricity: 0.0002540
inclination: 98.0372°
perigee height: 672 km
apogee height: 676 km
right ascension of ascending node: 148.9406°
argument of perigee: 76.5947°
revolutions per day: 14.65973815
mean anomaly at epoch: 283.5540°
orbit number at epoch: 98534

The dashed part of the orbit path shows where the satellite is in the earth's shadow,  

DLR